NAO YMLT-YMHB

Flight info

Callsign NAO
Flight time 0h 27m
Altitude 7000
Route BODEP DCT MORGO V33 TASUM
Aircraft B350/L-SDFGRW/S

Departure

Time 2026-05-05 09:01
Airport Launceston Airport (YMLT)

Arrival

Time 2026-05-05 09:29
Airport Hobart International Airport (YMHB)
Time Latitude Longitude Altitude Speed Heading
2026-05-05 06:43 -41.54830 147.21023 555 ft 0 kts 258°
2026-05-05 08:58 -41.54828 147.21012 555 ft 1 kts 309°
2026-05-05 08:58 -41.54817 147.21015 560 ft 6 kts 58°
2026-05-05 08:58 -41.54776 147.21095 556 ft 10 kts 66°
2026-05-05 08:58 -41.54783 147.21115 556 ft 0 kts 174°
2026-05-05 08:59 -41.54822 147.21174 556 ft 15 kts 147°
2026-05-05 08:59 -41.54924 147.21263 555 ft 19 kts 147°
2026-05-05 08:59 -41.55037 147.21361 559 ft 20 kts 149°
2026-05-05 08:59 -41.55157 147.21463 554 ft 21 kts 146°
2026-05-05 09:00 -41.55225 147.21548 557 ft 8 kts 112°
2026-05-05 09:00 -41.55225 147.21618 553 ft 8 kts 69°
2026-05-05 09:00 -41.55194 147.21678 554 ft 3 kts 28°
2026-05-05 09:00 -41.55187 147.21675 556 ft 0 kts 322°
2026-05-05 09:01 -41.55132 147.21621 555 ft 44 kts 323°
2026-05-05 09:01 -41.54614 147.21177 615 ft 119 kts 327°
2026-05-05 09:01 -41.53917 147.20502 1277 ft 130 kts 321°
2026-05-05 09:02 -41.53119 147.19673 1843 ft 158 kts 315°
2026-05-05 09:02 -41.52658 147.18312 2392 ft 176 kts 270°
2026-05-05 09:02 -41.53098 147.16759 2961 ft 190 kts 228°
2026-05-05 09:02 -41.54278 147.15915 3517 ft 203 kts 189°
2026-05-05 09:03 -41.55702 147.16146 4065 ft 212 kts 165°
2026-05-05 09:03 -41.57099 147.16725 4601 ft 208 kts 163°
2026-05-05 09:03 -41.58462 147.17313 5127 ft 204 kts 163°
2026-05-05 09:03 -41.59802 147.17902 5644 ft 202 kts 163°
2026-05-05 09:04 -41.61134 147.18495 6166 ft 201 kts 163°
2026-05-05 09:04 -41.62456 147.19095 6674 ft 201 kts 163°
2026-05-05 09:04 -41.63791 147.19713 7018 ft 210 kts 163°
2026-05-05 09:04 -41.65263 147.20238 7030 ft 227 kts 180°
2026-05-05 09:05 -41.66871 147.20037 7032 ft 238 kts 191°
2026-05-05 09:05 -41.68536 147.19654 7032 ft 247 kts 192°
2026-05-05 09:05 -41.70251 147.19236 7036 ft 253 kts 193°
2026-05-05 09:05 -41.71969 147.18813 7039 ft 254 kts 193°
2026-05-05 09:06 -41.73712 147.18392 7032 ft 255 kts 193°
2026-05-05 09:06 -41.75459 147.17966 7035 ft 255 kts 193°
2026-05-05 09:06 -41.77206 147.17543 7035 ft 255 kts 193°
2026-05-05 09:06 -41.78956 147.17119 7032 ft 256 kts 193°
2026-05-05 09:07 -41.80707 147.16691 7039 ft 255 kts 193°
2026-05-05 09:07 -41.82450 147.16269 7040 ft 253 kts 193°
2026-05-05 09:07 -41.84181 147.15846 7041 ft 252 kts 194°
2026-05-05 09:07 -41.85905 147.15429 7043 ft 251 kts 194°
2026-05-05 09:08 -41.87598 147.15014 7035 ft 250 kts 194°
2026-05-05 09:08 -41.89307 147.14598 7043 ft 250 kts 194°
2026-05-05 09:08 -41.91020 147.14179 7048 ft 250 kts 194°
2026-05-05 09:08 -41.92728 147.13764 7044 ft 250 kts 194°
2026-05-05 09:09 -41.94437 147.13348 7043 ft 249 kts 194°
2026-05-05 09:09 -41.96147 147.12929 7046 ft 250 kts 195°
2026-05-05 09:09 -41.97855 147.12510 7042 ft 250 kts 195°
2026-05-05 09:09 -41.99568 147.12094 7055 ft 250 kts 195°
2026-05-05 09:10 -42.01276 147.11676 7047 ft 249 kts 195°
2026-05-05 09:10 -42.02979 147.11251 7041 ft 249 kts 195°
2026-05-05 09:10 -42.04679 147.10843 7043 ft 248 kts 195°
2026-05-05 09:10 -42.06374 147.10429 7041 ft 247 kts 195°
2026-05-05 09:11 -42.08066 147.10009 7041 ft 247 kts 195°
2026-05-05 09:11 -42.09753 147.09599 7043 ft 246 kts 195°
2026-05-05 09:11 -42.11435 147.09184 7047 ft 245 kts 195°
2026-05-05 09:11 -42.13113 147.08774 7041 ft 244 kts 195°
2026-05-05 09:12 -42.14753 147.08372 7043 ft 243 kts 195°
2026-05-05 09:12 -42.16481 147.08403 7042 ft 252 kts 174°
2026-05-05 09:12 -42.18126 147.09203 7044 ft 260 kts 155°
2026-05-05 09:12 -42.19561 147.10728 7039 ft 265 kts 141°
2026-05-05 09:13 -42.20916 147.12418 7038 ft 265 kts 143°
2026-05-05 09:13 -42.22288 147.14100 7038 ft 266 kts 142°
2026-05-05 09:13 -42.23654 147.15794 7038 ft 267 kts 142°
2026-05-05 09:13 -42.25019 147.17493 7036 ft 267 kts 142°
2026-05-05 09:14 -42.26384 147.19193 7035 ft 266 kts 142°
2026-05-05 09:14 -42.27747 147.20879 7036 ft 266 kts 142°
2026-05-05 09:14 -42.29118 147.22576 7035 ft 268 kts 142°
2026-05-05 09:14 -42.30024 147.23709 7032 ft 268 kts 142°
2026-05-05 09:15 -42.31397 147.25410 7032 ft 267 kts 143°
2026-05-05 09:15 -42.33451 147.27129 7035 ft 261 kts 158°
2026-05-05 09:15 -42.35047 147.28315 7029 ft 262 kts 155°
2026-05-05 09:15 -42.36632 147.29541 7031 ft 262 kts 156°
2026-05-05 09:16 -42.38230 147.30729 7026 ft 263 kts 156°
2026-05-05 09:16 -42.39292 147.31518 7028 ft 263 kts 156°
2026-05-05 09:16 -42.40893 147.32714 7028 ft 263 kts 156°
2026-05-05 09:16 -42.42497 147.33915 7025 ft 263 kts 156°
2026-05-05 09:17 -42.44097 147.35120 7026 ft 262 kts 156°
2026-05-05 09:17 -42.45695 147.36312 7024 ft 262 kts 156°
2026-05-05 09:17 -42.47290 147.37515 7022 ft 261 kts 156°
2026-05-05 09:17 -42.48870 147.38702 7024 ft 259 kts 156°
2026-05-05 09:18 -42.50455 147.39878 7017 ft 259 kts 157°
2026-05-05 09:18 -42.52028 147.41064 7016 ft 258 kts 156°
2026-05-05 09:18 -42.53603 147.42246 7015 ft 259 kts 156°
2026-05-05 09:18 -42.55166 147.43423 7007 ft 260 kts 156°
2026-05-05 09:19 -42.56751 147.44623 7014 ft 261 kts 156°
2026-05-05 09:19 -42.58338 147.45809 7008 ft 260 kts 156°
2026-05-05 09:19 -42.59849 147.47195 7005 ft 266 kts 143°
2026-05-05 09:19 -42.61243 147.48854 7000 ft 266 kts 144°
2026-05-05 09:20 -42.62677 147.50453 6996 ft 267 kts 145°
2026-05-05 09:20 -42.64110 147.52058 6993 ft 267 kts 144°
2026-05-05 09:20 -42.65528 147.53686 6995 ft 267 kts 144°
2026-05-05 09:20 -42.66964 147.55319 6837 ft 273 kts 144°
2026-05-05 09:21 -42.68445 147.56998 6508 ft 280 kts 144°
2026-05-05 09:21 -42.69923 147.58688 6131 ft 276 kts 144°
2026-05-05 09:21 -42.71372 147.60342 5994 ft 266 kts 144°
2026-05-05 09:21 -42.72758 147.61922 5984 ft 255 kts 144°
2026-05-05 09:22 -42.74096 147.63455 5977 ft 248 kts 144°
2026-05-05 09:22 -42.75385 147.64930 5970 ft 241 kts 144°
2026-05-05 09:22 -42.76658 147.66377 5972 ft 236 kts 145°
2026-05-05 09:22 -42.77909 147.67805 5973 ft 233 kts 145°
2026-05-05 09:23 -42.79145 147.69216 5975 ft 232 kts 144°
2026-05-05 09:23 -42.80380 147.70633 5973 ft 231 kts 145°
2026-05-05 09:23 -42.81612 147.72042 5970 ft 230 kts 145°
2026-05-05 09:23 -42.82835 147.73444 5976 ft 230 kts 144°
2026-05-05 09:24 -42.84065 147.74838 5969 ft 229 kts 148°
2026-05-05 09:24 -42.85482 147.75783 5740 ft 230 kts 169°
2026-05-05 09:24 -42.87062 147.75917 5391 ft 229 kts 197°
2026-05-05 09:24 -42.88513 147.75054 5061 ft 229 kts 212°
2026-05-05 09:25 -42.89964 147.74106 4758 ft 233 kts 208°
2026-05-05 09:25 -42.91282 147.72922 4427 ft 229 kts 228°
2026-05-05 09:25 -42.92238 147.71206 4103 ft 227 kts 244°
2026-05-05 09:25 -42.92743 147.69180 3781 ft 226 kts 261°
2026-05-05 09:26 -42.92804 147.67037 3461 ft 226 kts 271°
2026-05-05 09:26 -42.92712 147.64897 3137 ft 227 kts 282°
2026-05-05 09:26 -42.92087 147.62918 2809 ft 228 kts 300°
2026-05-05 09:26 -42.91040 147.61279 2487 ft 230 kts 315°
2026-05-05 09:27 -42.89945 147.59819 2160 ft 209 kts 313°
2026-05-05 09:27 -42.88972 147.58457 1837 ft 193 kts 314°
2026-05-05 09:27 -42.88057 147.57209 1526 ft 177 kts 314°
2026-05-05 09:27 -42.87225 147.56085 1272 ft 161 kts 314°
2026-05-05 09:28 -42.86496 147.55096 962 ft 136 kts 314°
2026-05-05 09:28 -42.85870 147.54217 477 ft 132 kts 313°
2026-05-05 09:28 -42.85282 147.53390 274 ft 110 kts 320°
2026-05-05 09:28 -42.84745 147.52710 120 ft 104 kts 319°
2026-05-05 09:29 -42.84206 147.51958 49 ft 109 kts 314°
2026-05-05 09:29 -42.83728 147.51313 20 ft 81 kts 315°
2026-05-05 09:29 -42.83544 147.51063 21 ft 26 kts 315°
2026-05-05 09:29 -42.83420 147.50896 18 ft 21 kts 317°
2026-05-05 09:30 -42.83328 147.50761 16 ft 18 kts 297°
2026-05-05 09:30 -42.83329 147.50635 16 ft 11 kts 239°
2026-05-05 09:30 -42.83379 147.50564 18 ft 10 kts 214°
2026-05-05 09:30 -42.83437 147.50566 18 ft 7 kts 140°
2026-05-05 09:31 -42.83470 147.50614 19 ft 8 kts 138°
2026-05-05 09:31 -42.83510 147.50665 20 ft 9 kts 139°
2026-05-05 09:31 -42.83555 147.50724 22 ft 9 kts 129°
2026-05-05 09:31 -42.83602 147.50801 21 ft 12 kts 131°
2026-05-05 09:32 -42.83661 147.50846 22 ft 10 kts 192°
2026-05-05 09:32 -42.83707 147.50799 22 ft 8 kts 210°
2026-05-05 09:32 -42.83762 147.50813 20 ft 9 kts 150°
2026-05-05 09:32 -42.83827 147.50860 19 ft 12 kts 148°
2026-05-05 09:33 -42.83884 147.50935 18 ft 12 kts 134°
2026-05-05 09:33 -42.83917 147.50930 17 ft 0 kts 221°